Location: Derby
(52.9213°N, 1.4761°W)
Time: 15:44:38
(UTC+01:00)

Vanguard 2 Rocket - Pass Details

Date: 18 May 2025
Orbit: 554 x 3293 km, 32.9° (Epoch: 14 June)

Event Time Altitude Azimuth Distance (km) Brightness Sun altitude
Rises 22:24:22 0° 198° (SSW) 7,202 11.1 -9.7°
Reaches altitude 10° 22:32:27 10° 181° (S) 5,911 10.5 -10.4°
Maximum altitude 22:41:00 16° 152° (SSE) 4,925 10.0 -11.1°
Drops below altitude 10° 22:48:07 10° 121° (ESE) 4,814 10.0 -11.7°
Sets 22:53:23 0° 102° (ESE) 5,289 10.4 -12.1°
